Location: *
(38.3914°N, 75.0697°W)
Time: 02:57:21
(UTC+00:00)

Cosmos 2369 Rocket - Pass Details

Date: 17 February 2020
Orbit: 827 x 854 km, 71.0° (Epoch: 03 April)

Event Time Altitude Azimuth Distance (km) Brightness Sun altitude
Rises 01:00:39 0° 209° (SSW) 3,366 5.6 -28.3°
Reaches altitude 10° 01:03:05 10° 213° (SSW) 2,440 4.9 -28.8°
Maximum altitude 01:08:38 64° 294° (WNW) 927 2.5 -29.9°
Enters shadow 01:09:37 55° 341° (NNW) 1,011 2.6 -30.1°
